Jackson, TN

9:59 AM CDT on April 25, 2017 (GMT -0500)
McKellar-Sipes Regional

Weather History for KMKL - March, 2013

Change the Weather History Date:

Monday, March 4, 2013

  Actual Average Record
Temperature  
Mean Temperature 50 °F 47 °F  
Max Temperature 66 °F 59 °F 80 °F (1976)
Min Temperature 33 °F 36 °F 13 °F (2002)
Degree Days  
Heating Degree Days 15 18  
Month to date heating degree days 109 73  
Since 1 July heating degree days 2812 2957  
Cooling Degree Days 0 0  
Month to date cooling degree days 0 0  
Year to date cooling degree days 4 1  
Moisture  
Dew Point 29 °F    
Average Humidity 52    
Maximum Humidity 75    
Minimum Humidity 28    
Precipitation  
Precipitation 0.00 in 0.15 in 3.43 in (2015)
Month to date precipitation 0.04 0.57  
Year to date precipitation 11.98 8.81  
Snow  
Snow 0.00 in - - ()
Month to date snowfall T  
Snow Depth 0.00 in    
Sea Level Pressure  
Sea Level Pressure 29.92 in    
Wind  
Wind Speed 9 mph (SSE)    
Max Wind Speed 17 mph    
Max Gust Speed 33 mph    
Visibility 10 miles    
Events      
T = Trace of Precipitation, MM = Missing Value Source: NWS Daily Summary

Daily Weather History Graph

Daily Weather History Graph

Search for Another Location

Airport or City:

Trip Planner

Search our weather history database for the weather conditions in past years. The results will help you decide how hot, cold, wet, or windy it might be!

Date:

Astronomy

Mar. 04, 2013 Rise Set
Actual Time 6:21 AM CST 5:53 PM CST
Civil Twilight 5:55 AM CST 6:19 PM CST
Nautical Twilight 5:26 AM CST 6:48 PM CST
Astronomical Twilight 4:56 AM CST 7:18 PM CST
Moon 12:22 AM CST (3/4) 10:44 AM CST (3/4)
Length of Visible Light 12h 23m
Length of Day
11h 32m
Waning Gibbous, 52% of the Moon is Illuminated
Mar 4
Waning Gibbous
Mar 4
Last Quarter
Mar 11
New
Mar 19
First Quarter
Mar 27
Full

Hourly Weather History & Observations

Time (CST) Temp. Windchill Dew Point Humidity Pressure Visibility Wind Dir Wind Speed Gust Speed Precip Events Conditions
12:53 AM 34.0 °F - 27.0 °F 75% 30.11 in 10.0 mi Calm Calm - N/A   Clear
1:53 AM 34.0 °F 31.0 °F 24.1 °F 67% 30.10 in 10.0 mi ESE 3.5 mph - N/A   Clear
2:53 AM 34.0 °F 31.0 °F 21.9 °F 61% 30.07 in 10.0 mi ESE 3.5 mph - N/A   Clear
3:53 AM 35.1 °F - 21.9 °F 59% 30.06 in 10.0 mi Calm Calm - N/A   Clear
4:53 AM 36.0 °F 32.1 °F 21.9 °F 57% 30.06 in 10.0 mi SE 4.6 mph - N/A   Clear
5:53 AM 36.0 °F 32.1 °F 23.0 °F 59% 30.05 in 10.0 mi ESE 4.6 mph - N/A   Clear
6:53 AM 37.0 °F 32.4 °F 21.9 °F 54% 30.05 in 10.0 mi Variable 5.8 mph - N/A   Clear
7:53 AM 39.0 °F 34.8 °F 23.0 °F 53% 30.05 in 10.0 mi SSE 5.8 mph - N/A   Clear
8:53 AM 45.0 °F 40.6 °F 23.0 °F 42% 30.04 in 10.0 mi SSE 8.1 mph 18.4 mph N/A   Clear
9:53 AM 51.1 °F - 27.0 °F 39% 30.01 in 10.0 mi South 13.8 mph 19.6 mph N/A   Clear
10:53 AM 54.0 °F - 27.0 °F 35% 29.95 in 10.0 mi SSE 11.5 mph 21.9 mph N/A   Clear
11:53 AM 60.1 °F - 28.9 °F 31% 29.91 in 10.0 mi South 15.0 mph 25.3 mph N/A   Clear
12:53 PM 63.0 °F - 30.0 °F 29% 29.86 in 10.0 mi SSE 17.3 mph 27.6 mph N/A   Clear
1:53 PM 64.0 °F - 30.0 °F 28% 29.82 in 10.0 mi SSE 11.5 mph 23.0 mph N/A   Clear
2:53 PM 64.9 °F - 30.9 °F 28% 29.81 in 10.0 mi South 11.5 mph 24.2 mph N/A   Clear
3:53 PM 64.0 °F - 32.0 °F 30% 29.80 in 10.0 mi South 13.8 mph 23.0 mph N/A   Mostly Cloudy
4:53 PM 63.0 °F - 32.0 °F 31% 29.81 in 10.0 mi SSE 10.4 mph 23.0 mph N/A   Overcast
5:53 PM 62.1 °F - 32.0 °F 32% 29.81 in 10.0 mi SSE 6.9 mph 16.1 mph N/A   Overcast
6:53 PM 61.0 °F - 33.1 °F 35% 29.81 in 10.0 mi SSE 8.1 mph - N/A   Overcast
7:53 PM 61.0 °F - 34.0 °F 36% 29.81 in 10.0 mi SSE 8.1 mph - N/A   Overcast
8:53 PM 61.0 °F - 35.1 °F 38% 29.80 in 10.0 mi South 10.4 mph 16.1 mph N/A   Overcast
9:53 PM 61.0 °F - 37.0 °F 41% 29.78 in 10.0 mi South 15.0 mph 25.3 mph N/A   Overcast
10:53 PM 61.0 °F - 41.0 °F 48% 29.76 in 10.0 mi South 17.3 mph 28.8 mph N/A   Overcast
11:53 PM 60.1 °F - 43.0 °F 53% 29.76 in 10.0 mi South 13.8 mph 25.3 mph N/A   Overcast